Location: Austin
(30.3000°N, 97.7500°W)
Time: 05:20:23
(UTC-06:00)

Cosmos 1707 - Pass Details

Date: 03 March 2026
Orbit: 367 x 371 km, 82.5° (Epoch: 5 March)

Event Time Altitude Azimuth Distance (km) Brightness Sun altitude
Rises 19:16:43 0° 16° (NNE) 2,230 5.8 -10.6°
Reaches altitude 10° 19:19:20 10° 42° (NE) 1,376 4.5 -11.1°
Enters shadow 19:19:29 11° 44° (NE) 1,340 4.4 -11.2°
